TimeMST,TemperatureF,Dew PointF,Humidity,Sea Level PressureIn,VisibilityMPH,Wind Direction,Wind SpeedMPH,Gust SpeedMPH,PrecipitationIn,Events,Conditions,WindDirDegrees,DateUTC
12:56 AM,32.0,21.0,64,29.70,-9999.0,West,13.8,-,N/A,,Unknown,280,2014-02-20 07:56:00
1:56 AM,30.9,19.9,64,29.71,-9999.0,West,12.7,-,N/A,,Unknown,270,2014-02-20 08:56:00
2:56 AM,30.9,19.9,64,29.70,-9999.0,West,18.4,-,N/A,,Unknown,270,2014-02-20 09:56:00
3:56 AM,30.9,19.0,61,29.69,-9999.0,West,20.7,27.6,N/A,,Unknown,270,2014-02-20 10:56:00
4:56 AM,30.9,18.0,59,29.68,-9999.0,West,20.7,29.9,N/A,,Unknown,270,2014-02-20 11:56:00
5:56 AM,28.9,17.1,61,29.71,-9999.0,NW,33.4,43.7,N/A,,Unknown,310,2014-02-20 12:56:00
6:56 AM,21.9,12.9,68,29.76,-9999.0,NW,36.8,48.3,N/A,,Unknown,310,2014-02-20 13:56:00
7:56 AM,19.9,10.9,68,29.79,-9999.0,NW,35.7,44.9,N/A,,Unknown,310,2014-02-20 14:56:00
8:56 AM,19.9,10.0,65,29.82,-9999.0,NW,40.3,51.8,N/A,,Unknown,320,2014-02-20 15:56:00
9:56 AM,21.0,10.0,63,29.83,-9999.0,NW,41.4,50.6,N/A,,Unknown,320,2014-02-20 16:56:00
10:56 AM,23.0,12.0,63,29.86,-9999.0,NNW,38.0,44.9,N/A,,Unknown,330,2014-02-20 17:56:00
11:56 AM,25.0,12.9,60,29.88,-9999.0,NW,33.4,41.4,N/A,,Unknown,310,2014-02-20 18:56:00
12:56 PM,27.0,14.0,58,29.86,-9999.0,NW,28.8,40.3,N/A,,Unknown,320,2014-02-20 19:56:00
1:56 PM,28.0,12.9,53,29.85,-9999.0,NW,29.9,39.1,N/A,,Unknown,320,2014-02-20 20:56:00
2:56 PM,30.0,12.0,47,29.85,-9999.0,NW,28.8,41.4,N/A,,Unknown,320,2014-02-20 21:56:00
3:56 PM,30.9,12.9,47,29.86,-9999.0,NW,28.8,34.5,N/A,,Unknown,320,2014-02-20 22:56:00
4:56 PM,30.0,16.0,56,29.85,-9999.0,NW,23.0,29.9,N/A,,Unknown,320,2014-02-20 23:56:00
5:56 PM,26.1,17.1,69,29.87,-9999.0,NW,11.5,-,N/A,,Unknown,320,2014-02-21 00:56:00
6:56 PM,23.0,17.1,78,29.88,-9999.0,WNW,8.1,-,N/A,,Unknown,300,2014-02-21 01:56:00
7:56 PM,24.1,18.0,77,29.87,-9999.0,NNW,9.2,-,N/A,,Unknown,330,2014-02-21 02:56:00
8:56 PM,21.9,17.1,82,29.86,-9999.0,WNW,5.8,-,N/A,,Unknown,290,2014-02-21 03:56:00
9:56 PM,21.9,17.1,82,29.85,-9999.0,WNW,6.9,-,N/A,,Unknown,290,2014-02-21 04:56:00
10:56 PM,23.0,17.1,78,29.81,-9999.0,NW,8.1,-,N/A,,Unknown,310,2014-02-21 05:56:00
11:56 PM,23.0,17.1,78,29.80,-9999.0,WSW,4.6,-,N/A,,Unknown,250,2014-02-21 06:56:00